Regional Weather Roundup
Issued by NWS Upton, NY

Current Version | Previous Version | Graphics & Text | Print | Product List | Glossary Off
Versions: 1 2 3 4 5 6 7 8 9 10 11 12 13 14 15 16 17 18 19 20 21 22 23 24 25 26 27 28 29 30

000
ASUS41 KOKX 230208
RWROKX

REGIONAL WEATHER ROUNDUP
NATIONAL WEATHER SERVICE NEW YORK NY
1000 PM EDT SUN OCT 22 2017

NOTE: "FAIR" INDICATES FEW OR NO CLOUDS BELOW 12,000 FEET WITH NO
SIGNIFICANT WEATHER AND/OR OBSTRUCTIONS TO VISIBILITY.

NYZ071-072-176-178-NJZ106-104-230300-
NEW YORK CITY METRO AREA

CITY           SKY/WX    TMP DP  RH WIND       PRES   REMARKS
Central Park   MOCLDY    64  52  64 CALM      30.40S
Bronx Bot Gard   N/A     59  54  82 CALM      30.40R
LaGuardia APRT MOCLDY    65  53  65 S6        30.37S
Kennedy INTL   CLOUDY    59  58  96 E3        30.39S
Breezy Point     N/A     63 N/A N/A SE7         N/A
Newark/Liberty CLOUDY    64  55  72 S5        30.38R
Teterboro      PTCLDY    61  48  62 CALM      30.37R
$$

NYZ177-179-078>081-230300-
LONG ISLAND NEW YORK

CITY           SKY/WX    TMP DP  RH WIND       PRES   REMARKS
Jones Beach      N/A     63 N/A N/A SE5         N/A
Matinecock PT    N/A     61 N/A N/A S6          N/A
Farmingdale    MOCLDY    57  55  93 CALM      30.39R
MacArthur/ISP  MOCLDY    57  55  93 SE3       30.39R
Shirley        PTCLDY    55  52  89 CALM      30.40R
Mt Sinai Harb    N/A    N/A N/A N/A S1          N/A
Westhampton    CLEAR     46  43  89 CALM      30.41S
East Hampton   FAIR      47  47  97 CALM      30.40S
Montauk          N/A     57  57 100 CALM      30.42R
$$

NYZ052-065-067-230300-
HUDSON VALLEY

CITY           SKY/WX    TMP DP  RH WIND       PRES   REMARKS
White Plains   PTCLDY    54  49  83 CALM      30.38R
Larchmont Harb   N/A     63 N/A N/A CALM        N/A
Croton On Huds   N/A     61 N/A N/A CALM        N/A
Newburgh       PTCLDY    63  46  55 VRB6      30.38R
Montgomery     PTCLDY    52  47  83 CALM      30.36R
Poughkeepsie   CLOUDY    51  46  83 CALM      30.36R
Albany         MOCLDY    63  43  48 S7        30.34R
$$

NJZ001-105-106-008-010-013-015-019>022-104-230300-
NEW JERSEY

CITY           SKY/WX    TMP DP  RH WIND       PRES   REMARKS
Newark/Liberty CLOUDY    64  55  72 S5        30.38R
Teterboro      PTCLDY    61  48  62 CALM      30.37R
Caldwell       CLOUDY    57  53  86 CALM      30.38R
Somerville     PTCLDY    52  50  93 CALM      30.36R
Linden         FAIR      62  53  73 CALM      30.38R
Perth Amboy      N/A     61 N/A N/A SE5         N/A
Sussex         PTCLDY    51  49  92 CALM      30.37R
Andover          N/A     54  51  90 SW3       30.37R
Trenton        PTCLDY    58  47  66 CALM      30.37R
Millville      CLOUDY    58  57  97 CALM      30.37R
Atlantic City  PTCLDY    60  57  89 CALM      30.37S
Wrightstown    PTCLDY    51  49  91 CALM      30.35R
Toms River       N/A     51  47  86 CALM      30.38R
Belmar         MOCLDY    59  57  93 SE3       30.39R
$$

PAZ047>061-062-071-230300-
EASTERN PENNSYLVANIA

CITY           SKY/WX    TMP DP  RH WIND       PRES   REMARKS
Philadelphia   MOCLDY    60  53  77 SE3       30.37R
Allentown      CLOUDY    59  46  62 CALM      30.36R
Scranton       CLOUDY    63  44  50 CALM      30.34R
$$

CTZ002-004>006-009-010-012-RIZ004-006-007-MAZ004-011-015-230300-
SOUTHERN NEW ENGLAND
 IN CT

CITY           SKY/WX    TMP DP  RH WIND       PRES   REMARKS
Bradley INTL   CLOUDY    58  49  72 S5        30.39R
Hartford       CLEAR     57  52  83 S3        30.39R
Danbury        CLOUDY    51  48  89 CALM      30.40R
Wtrbury/Oxford PTCLDY    53  51  93 CALM      30.40S
Norwalk Harbor   N/A     63 N/A N/A S6          N/A
Bridgeport     CLEAR     57  53  86 CALM      30.39R
Meriden        PTCLDY    50  48  93 CALM      30.39S
New Haven      CLEAR     51  48  89 CALM      30.40R
Chester          N/A     55  54  94 CALM      30.40S
Groton         PTCLDY    54  53  97 CALM      30.40R
Wilimantic     PTCLDY    51  48  89 NE3       30.41R

 IN RI

CITY           SKY/WX    TMP DP  RH WIND       PRES   REMARKS
Providence     CLOUDY    55  54  96 CALM      30.42R
Block Island   CLEAR     61  59  93 S7        30.42R
Westerly       CLEAR     54  52  93 CALM      30.41R
 IN MA

CITY           SKY/WX    TMP DP  RH WIND       PRES   REMARKS
Boston         CLOUDY    56  54  93 NE3       30.42S
Worcester      CLEAR     54  51  90 NE5       30.42R
Westfield      PTCLDY    49  47  93 CALM      30.38R
Provincetown   CLOUDY    58  57  97 S6        30.42R
Nantucket      FOG       55  55 100 S6        30.43R VSB 3/4
$$

ANZ330-335-338-340-345-350-353-355-230300-
COASTAL MARINE OBSERVATIONS


STATION/POSITION TIME  SKY/WX   TEMP    WIND        PRES    VSBY  WAVE
                                AIR SEA DIR/SP/G                  HT/PER
                 (UTC)          (F)     (DEG/KT/KT) (MB)    (MI)  (FT/S)
NY HARB ENTRANCE 0050            65 65  150/  8/ 10 1027.7          2/ 9
20 S FIRE ISLAND 0050            64 65  150/ 10/ 12 1028.4          2/ 8
GREAT SOUTH BAY  0130            63 63  150/  2/  4   N/A
15 E BARNEGAT LI NOT AVBL
HUDSON CANYON    0050            64 65  120/  8/ 10 1028.2          2/ 8
KINGS POINT      0124            62 66  180/  4/  5 1029.4
EXECUTION ROCKS  0145            63     100/  4/  6   N/A
WESTERN LI SOUND 0119            63     160/  8/  8   N/A           0
CENTRAL LI SOUND NOT AVBL
EASTERN LI SOUND NOT AVBL
ROBBINS REEF     0124            65     160/  8/  9 1029.1
$$


>>>>>>>>>>>>>>>>>>>>>>>>>>>> KEY <<<<<<<<<<<<<<<<<<<<<<<<<<<
>                                                          <
>     SKY/WX - Sky Condition/Present Weather               <
>     TMP    - Temperature in Fahrenheit                   <
>     DP     - Dew Point in Fahrenheit                     <
>     RH     - Relative Humidity in Percent                <
>     WIND   - Direction (from) and Speed in MPH           <
>     PRES   - Mean Sea Level Pressure (inches of Hg)      <
>     WCI    - Wind Chill Index                            <
>     VSB    - VISIBILITY IN MILES                         <
>     HX     - HEAT INDEX                                  <
>     TC     - TEMPERATURE IN CELSIUS                      <
>     VRB    - VARIABLE WIND DIRECTION                     <
>                                                          <
>>>>>>>>>>>>>>>>>>>>>>>>>>>> KEY <<<<<<<<<<<<<<<<<<<<<<<<<<<




USA.gov is the U.S. government's official web portal to all federal, state and local government web resources and services.